Date String (YYYY-MM-DD hh:mm:ss) UTC,Instrument flags,Ambient pressure (hPa),Sample flow (lpm),Bypass flow (lpm),Sample temperature (°C),Ambient temperature (°C),ASC tube jacket temperature (°C),LED temperature (°C),Box temperature (°C),Sample RH (%),Span deviation,Mass concentration (μg/m³),Mass concentration (μg/m³),Mass concentration (μg/m³)
DateTimeUTC,F1_M11,P_M11,Q1_M11,Q2_M11,T1_M11,T2_M11,T3_M11,T4_M11,T5_M11,U1_M11,ZSPAN_M11,X0_M11,X2_M11,X1_M11
2022-06-26 06:00:00,,0837.7,5.00,0.00,29.7,28.6,00.0,38.5,31.6,30.6,0000.0,0011.17,0004.46,0003.59
2022-06-26 06:01:00,,0837.7,5.01,0.00,29.7,28.7,00.0,38.5,31.6,30.4,0000.0,0011.14,0004.49,0003.58
2022-06-26 06:02:00,,0837.7,5.00,0.00,29.7,28.7,00.0,38.5,31.7,29.7,0000.0,0011.88,0004.47,0003.56
2022-06-26 06:03:00,,0837.7,4.99,0.00,29.8,28.8,00.0,38.5,31.7,29.2,0000.0,0013.07,0004.42,0003.53
2022-06-26 06:04:00,,0837.8,5.01,0.00,29.8,28.8,00.0,38.6,31.7,29.1,0000.0,0013.06,0004.38,0003.49
2022-06-26 06:05:00,,0837.8,4.99,0.00,29.8,28.8,00.0,38.6,31.7,29.3,0000.0,0013.67,0004.39,0003.45
2022-06-26 06:06:00,,0837.8,5.00,0.00,29.8,28.8,00.0,38.6,31.7,29.1,0000.0,0013.27,0004.37,0003.41
2022-06-26 06:07:00,,0837.8,5.00,0.00,29.8,28.9,00.0,38.6,31.7,29.1,0000.0,0012.79,0004.32,0003.37
2022-06-26 06:08:00,,0837.8,5.01,0.00,29.8,28.9,00.0,38.6,31.8,30.1,0000.0,0013.08,0004.34,0003.37
2022-06-26 06:09:00,,0837.8,5.01,0.00,29.9,28.9,00.0,38.6,31.7,30.6,0000.0,0013.42,0004.38,0003.36
2022-06-26 06:10:00,,0837.8,4.99,0.00,29.9,28.9,00.0,38.6,31.8,30.8,0000.0,0013.31,0004.35,0003.34
2022-06-26 06:11:00,,0837.8,5.00,0.00,29.9,29.0,00.0,38.7,31.8,30.8,0000.0,0013.09,0004.30,0003.32
2022-06-26 06:12:00,,0837.8,5.00,0.00,29.9,29.0,00.0,38.7,31.8,30.9,0000.0,0012.72,0004.26,0003.31
2022-06-26 06:13:00,,0837.8,5.00,0.00,29.9,29.0,00.0,38.7,31.9,31.0,0000.0,0011.33,0004.26,0003.34
2022-06-26 06:14:00,,0837.8,5.01,0.00,29.9,29.0,00.0,38.7,31.9,31.1,0000.0,0010.43,0004.33,0003.38
2022-06-26 06:15:00,,0837.8,5.00,0.00,30.0,29.1,00.0,38.7,31.9,31.2,0000.0,0011.49,0004.43,0003.42
2022-06-26 06:16:00,,0837.8,4.99,0.00,30.0,29.1,00.0,38.7,31.9,31.2,0000.0,0011.07,0004.49,0003.47
2022-06-26 06:17:00,,0837.8,5.01,0.00,30.0,29.1,00.0,38.8,31.9,30.5,0000.0,0011.13,0004.55,0003.51
2022-06-26 06:18:00,,0837.8,5.00,0.00,30.0,29.1,00.0,38.8,31.9,30.1,0000.0,0011.31,0004.58,0003.53
2022-06-26 06:19:00,,0837.8,4.99,0.00,30.0,29.1,00.0,38.8,31.9,29.9,0000.0,0011.52,0004.53,0003.52
2022-06-26 06:20:00,,0837.9,5.00,0.00,30.0,29.1,00.0,38.8,32.0,29.8,0000.0,0011.11,0004.46,0003.50
2022-06-26 06:21:00,,0837.8,5.00,0.00,30.1,29.2,00.0,38.8,32.0,29.3,0000.0,0010.99,0004.43,0003.47
2022-06-26 06:22:00,,0837.8,5.00,0.00,30.1,29.2,00.0,38.8,32.0,28.9,0000.0,0011.31,0004.40,0003.44
2022-06-26 06:23:00,,0837.8,5.00,0.00,30.1,29.2,00.0,38.8,32.0,28.6,0000.0,0011.70,0004.36,0003.40
2022-06-26 06:24:00,,0837.8,5.00,0.00,30.1,29.2,00.0,38.9,32.0,28.6,0000.0,0011.76,0004.35,0003.35
2022-06-26 06:25:00,,0837.8,5.01,0.00,30.1,29.2,00.0,38.9,32.0,28.5,0000.0,0011.66,0004.29,0003.30
2022-06-26 06:26:00,,0837.8,4.99,0.00,30.1,29.2,00.0,38.9,32.0,28.4,0000.0,0010.69,0004.21,0003.26
2022-06-26 06:27:00,,0837.8,4.99,0.00,30.1,29.2,00.0,38.9,32.0,28.4,0000.0,0010.13,0004.11,0003.21
2022-06-26 06:28:00,,0837.8,5.01,0.00,30.2,29.3,00.0,38.9,32.0,28.4,0000.0,0009.74,0004.05,0003.18
2022-06-26 06:29:00,,0837.8,5.00,0.00,30.2,29.3,00.0,38.9,32.1,28.1,0000.0,0009.48,0003.98,0003.17
2022-06-26 06:30:00,,0837.7,4.99,0.00,30.2,29.3,00.0,39.0,32.1,27.9,0000.0,0009.51,0003.98,0003.15
2022-06-26 06:31:00,,0837.8,4.99,0.00,30.2,29.3,00.0,39.0,32.1,27.9,0000.0,0009.44,0003.97,0003.12
2022-06-26 06:32:00,,0837.8,5.00,0.00,30.2,29.3,00.0,39.0,32.1,28.1,0000.0,0009.71,0003.95,0003.12
2022-06-26 06:33:00,,0837.8,5.00,0.00,30.2,29.3,00.0,39.0,32.1,28.2,0000.0,0009.69,0003.93,0003.12
2022-06-26 06:34:00,,0837.9,5.00,0.00,30.2,29.3,00.0,39.0,32.1,28.3,0000.0,0009.20,0003.91,0003.12
2022-06-26 06:35:00,,0837.9,5.00,0.00,30.2,29.3,00.0,39.0,32.1,28.3,0000.0,0009.04,0003.86,0003.12
2022-06-26 06:36:00,,0837.9,5.00,0.00,30.3,29.4,00.0,39.0,32.1,28.3,0000.0,0008.98,0003.85,0003.12
2022-06-26 06:37:00,,0838.0,5.00,0.00,30.3,29.4,00.0,39.0,32.2,28.5,0000.0,0009.11,0003.88,0003.12
2022-06-26 06:38:00,,0838.0,4.99,0.00,30.3,29.4,00.0,39.1,32.2,28.4,0000.0,0008.96,0003.87,0003.12
2022-06-26 06:39:00,,0838.0,5.00,0.00,30.3,29.4,00.0,39.1,32.2,28.3,0000.0,0008.98,0003.82,0003.08
2022-06-26 06:40:00,,0838.0,5.00,0.00,30.3,29.4,00.0,39.1,32.2,28.2,0000.0,0009.15,0003.84,0003.07
2022-06-26 06:41:00,,0838.0,4.99,0.00,30.3,29.4,00.0,39.1,32.2,28.2,0000.0,0008.91,0003.84,0003.07
2022-06-26 06:42:00,,0838.0,5.00,0.00,30.3,29.4,00.0,39.1,32.2,28.3,0000.0,0008.81,0003.84,0003.08
2022-06-26 06:43:00,,0838.0,5.01,0.00,30.4,29.4,00.0,39.1,32.2,28.3,0000.0,0008.75,0003.83,0003.08
2022-06-26 06:44:00,,0838.0,5.00,0.00,30.4,29.3,00.0,39.1,32.2,28.4,0000.0,0008.19,0003.82,0003.08
2022-06-26 06:45:00,,0838.0,4.99,0.00,30.3,28.6,00.0,39.1,32.0,28.7,0000.0,0008.39,0003.87,0003.08
2022-06-26 06:46:00,,0838.0,5.01,0.00,30.2,27.9,00.0,39.0,31.8,28.8,0000.0,0008.58,0003.91,0003.08
2022-06-26 06:47:00,,0838.0,5.00,0.00,30.1,27.6,00.0,39.0,31.7,28.7,0000.0,0008.63,0003.91,0003.07
2022-06-26 06:48:00,,0837.9,5.00,0.00,30.0,27.6,00.0,39.0,31.7,29.0,0000.0,0008.39,0003.88,0003.05
2022-06-26 06:49:00,,0838.0,5.00,0.00,30.0,27.7,00.0,38.9,31.6,29.1,0000.0,0008.33,0003.86,0003.04
2022-06-26 06:50:00,,0837.9,5.01,0.00,29.9,27.9,00.0,38.9,31.6,29.2,0000.0,0008.46,0003.90,0003.06
2022-06-26 06:51:00,,0837.9,4.99,0.00,29.9,28.0,00.0,38.9,31.6,29.3,0000.0,0008.33,0003.88,0003.03
2022-06-26 06:52:00,,0837.9,5.00,0.00,29.9,28.1,00.0,38.9,31.7,29.4,0000.0,0008.04,0003.86,0003.02
2022-06-26 06:53:00,,0837.9,4.99,0.00,29.9,28.2,00.0,38.8,31.7,29.5,0000.0,0007.98,0003.85,0003.00
2022-06-26 06:54:00,,0837.9,5.00,0.00,29.9,28.3,00.0,38.8,31.7,29.6,0000.0,0007.97,0003.85,0002.99
2022-06-26 06:55:00,,0837.9,4.99,0.00,29.9,28.4,00.0,38.8,31.7,29.4,0000.0,0008.19,0003.84,0002.97
2022-06-26 06:56:00,,0837.9,5.00,0.00,29.9,28.5,00.0,38.8,31.7,29.5,0000.0,0008.03,0003.79,0002.96
2022-06-26 06:57:00,,0837.9,4.99,0.00,29.9,28.6,00.0,38.8,31.7,29.6,0000.0,0007.86,0003.75,0002.93
2022-06-26 06:58:00,,0837.9,5.00,0.00,29.9,28.7,00.0,38.8,31.8,29.9,0000.0,0007.90,0003.78,0002.94
2022-06-26 06:59:00,,0837.9,5.00,0.00,29.9,28.7,00.0,38.8,31.8,29.9,0000.0,0007.97,0003.78,0002.93
